owner,sensor,date,latitude,longitude,mass_concentration_of_chlorophyll_in_sea_water,qcFlag 
SCCF RECON,ioos:station:SCCF:56:1,2019-09-01T04:00:00Z,26.4645,-82.1044,8.52,11111222 
SCCF RECON,ioos:station:SCCF:56:1,2019-09-01T05:00:00Z,26.4645,-82.1044,10.15,11111222 
SCCF RECON,ioos:station:SCCF:56:1,2019-09-01T06:00:00Z,26.4645,-82.1044,8.55,11111222 
SCCF RECON,ioos:station:SCCF:56:1,2019-09-01T07:00:00Z,26.4645,-82.1044,7.73,11111222 
SCCF RECON,ioos:station:SCCF:56:1,2019-09-01T08:00:00Z,26.4645,-82.1044,7.37,11111222 
SCCF RECON,ioos:station:SCCF:56:1,2019-09-01T09:00:00Z,26.4645,-82.1044,6.41,11111222 
SCCF RECON,ioos:station:SCCF:56:1,2019-09-01T10:00:00Z,26.4645,-82.1044,6.15,11111222 
SCCF RECON,ioos:station:SCCF:56:1,2019-09-01T11:00:00Z,26.4645,-82.1044,5.82,11111222 
SCCF RECON,ioos:station:SCCF:56:1,2019-09-01T12:00:00Z,26.4645,-82.1044,5.29,11111222 
SCCF RECON,ioos:station:SCCF:56:1,2019-09-01T13:00:00Z,26.4645,-82.1044,5.63,11111222 
SCCF RECON,ioos:station:SCCF:56:1,2019-09-01T14:00:00Z,26.4645,-82.1044,6.79,11111222 
SCCF RECON,ioos:station:SCCF:56:1,2019-09-01T15:00:00Z,26.4645,-82.1044,6.27,11111222 
SCCF RECON,ioos:station:SCCF:56:1,2019-09-01T16:00:00Z,26.4645,-82.1044,7.36,11111222 
SCCF RECON,ioos:station:SCCF:56:1,2019-09-01T17:00:00Z,26.4645,-82.1044,10.94,11111222 
SCCF RECON,ioos:station:SCCF:56:1,2019-09-01T18:00:00Z,26.4645,-82.1044,8.51,11111222 
SCCF RECON,ioos:station:SCCF:56:1,2019-09-01T19:00:00Z,26.4645,-82.1044,9.57,11111222 
SCCF RECON,ioos:station:SCCF:56:1,2019-09-01T20:00:00Z,26.4645,-82.1044,12.53,11111222 
SCCF RECON,ioos:station:SCCF:56:1,2019-09-01T21:00:00Z,26.4645,-82.1044,9.64,11111222 
SCCF RECON,ioos:station:SCCF:56:1,2019-09-01T22:00:00Z,26.4645,-82.1044,11.18,11111222 
SCCF RECON,ioos:station:SCCF:56:1,2019-09-01T23:00:00Z,26.4645,-82.1044,9.88,11111222 
SCCF RECON,ioos:station:SCCF:56:1,2019-09-02T04:00:00Z,26.4645,-82.1044,6.46,11111222 
SCCF RECON,ioos:station:SCCF:56:1,2019-09-02T05:00:00Z,26.4645,-82.1044,9.13,11111222 
SCCF RECON,ioos:station:SCCF:56:1,2019-09-02T06:00:00Z,26.4645,-82.1044,8.34,11111222 
SCCF RECON,ioos:station:SCCF:56:1,2019-09-02T07:00:00Z,26.4645,-82.1044,8.07,11111222 
SCCF RECON,ioos:station:SCCF:56:1,2019-09-02T08:00:00Z,26.4645,-82.1044,8.06,11111222 
SCCF RECON,ioos:station:SCCF:56:1,2019-09-02T09:00:00Z,26.4645,-82.1044,6.93,11111222 
SCCF RECON,ioos:station:SCCF:56:1,2019-09-02T10:00:00Z,26.4645,-82.1044,6.01,11111222 
SCCF RECON,ioos:station:SCCF:56:1,2019-09-02T11:00:00Z,26.4645,-82.1044,5.57,11111222 
SCCF RECON,ioos:station:SCCF:56:1,2019-09-02T12:00:00Z,26.4645,-82.1044,5.1,11111222 
SCCF RECON,ioos:station:SCCF:56:1,2019-09-02T13:00:00Z,26.4645,-82.1044,5.69,11111222 
SCCF RECON,ioos:station:SCCF:56:1,2019-09-02T16:00:00Z,26.4645,-82.1044,7.28,11111222 
SCCF RECON,ioos:station:SCCF:56:1,2019-09-02T17:00:00Z,26.4645,-82.1044,8.91,11111222 
SCCF RECON,ioos:station:SCCF:56:1,2019-09-02T18:00:00Z,26.4645,-82.1044,10.48,11111222 
SCCF RECON,ioos:station:SCCF:56:1,2019-09-02T19:00:00Z,26.4645,-82.1044,11.49,11111222 
SCCF RECON,ioos:station:SCCF:56:1,2019-09-02T20:00:00Z,26.4645,-82.1044,14.54,11111222 
SCCF RECON,ioos:station:SCCF:56:1,2019-09-02T21:00:00Z,26.4645,-82.1044,15.48,11111222 
SCCF RECON,ioos:station:SCCF:56:1,2019-09-02T22:00:00Z,26.4645,-82.1044,10.35,11111222 
SCCF RECON,ioos:station:SCCF:56:1,2019-09-02T23:00:00Z,26.4645,-82.1044,8.99,11111222 
SCCF RECON,ioos:station:SCCF:56:1,2019-09-03T04:00:00Z,26.4645,-82.1044,5.69,11111222 
SCCF RECON,ioos:station:SCCF:56:1,2019-09-03T05:00:00Z,26.4645,-82.1044,8.26,11111222 
SCCF RECON,ioos:station:SCCF:56:1,2019-09-03T06:00:00Z,26.4645,-82.1044,8.93,11111222 
SCCF RECON,ioos:station:SCCF:56:1,2019-09-03T07:00:00Z,26.4645,-82.1044,8.41,11111222 
SCCF RECON,ioos:station:SCCF:56:1,2019-09-03T08:00:00Z,26.4645,-82.1044,7.74,11111222 
SCCF RECON,ioos:station:SCCF:56:1,2019-09-03T09:00:00Z,26.4645,-82.1044,7.56,11111222 
SCCF RECON,ioos:station:SCCF:56:1,2019-09-03T10:00:00Z,26.4645,-82.1044,6.67,11111222 
SCCF RECON,ioos:station:SCCF:56:1,2019-09-03T11:00:00Z,26.4645,-82.1044,6.6,11111222 
SCCF RECON,ioos:station:SCCF:56:1,2019-09-03T12:00:00Z,26.4645,-82.1044,5.51,11111222 
SCCF RECON,ioos:station:SCCF:56:1,2019-09-03T13:00:00Z,26.4645,-82.1044,5.63,11111222 
SCCF RECON,ioos:station:SCCF:56:1,2019-09-03T14:00:00Z,26.4645,-82.1044,5.46,11111222 
SCCF RECON,ioos:station:SCCF:56:1,2019-09-03T15:00:00Z,26.4645,-82.1044,5.94,11111222 
SCCF RECON,ioos:station:SCCF:56:1,2019-09-03T16:00:00Z,26.4645,-82.1044,6.19,11111222 
SCCF RECON,ioos:station:SCCF:56:1,2019-09-03T17:00:00Z,26.4645,-82.1044,7.25,11111222 
SCCF RECON,ioos:station:SCCF:56:1,2019-09-03T18:00:00Z,26.4645,-82.1044,6.71,11111222 
SCCF RECON,ioos:station:SCCF:56:1,2019-09-03T19:00:00Z,26.4645,-82.1044,7.05,11111222 
SCCF RECON,ioos:station:SCCF:56:1,2019-09-03T20:00:00Z,26.4645,-82.1044,6.88,11111222 
SCCF RECON,ioos:station:SCCF:56:1,2019-09-03T21:00:00Z,26.4645,-82.1044,8.47,11111222 
SCCF RECON,ioos:station:SCCF:56:1,2019-09-03T22:00:00Z,26.4645,-82.1044,7.44,11111222 
SCCF RECON,ioos:station:SCCF:56:1,2019-09-03T23:00:00Z,26.4645,-82.1044,7.58,11111222 
SCCF RECON,ioos:station:SCCF:56:1,2019-09-04T04:00:00Z,26.4645,-82.1044,5.03,11111222 
SCCF RECON,ioos:station:SCCF:56:1,2019-09-04T05:00:00Z,26.4645,-82.1044,5.35,11111222 
SCCF RECON,ioos:station:SCCF:56:1,2019-09-04T06:00:00Z,26.4645,-82.1044,6.38,11111222 
SCCF RECON,ioos:station:SCCF:56:1,2019-09-04T07:00:00Z,26.4645,-82.1044,5.24,11111222 
SCCF RECON,ioos:station:SCCF:56:1,2019-09-04T08:00:00Z,26.4645,-82.1044,5.08,11111222 
SCCF RECON,ioos:station:SCCF:56:1,2019-09-04T09:00:00Z,26.4645,-82.1044,5.39,11111222 
SCCF RECON,ioos:station:SCCF:56:1,2019-09-04T10:00:00Z,26.4645,-82.1044,4.61,11111222 
SCCF RECON,ioos:station:SCCF:56:1,2019-09-04T11:00:00Z,26.4645,-82.1044,4.07,11111222 
SCCF RECON,ioos:station:SCCF:56:1,2019-09-04T12:00:00Z,26.4645,-82.1044,4.16,11111222 
SCCF RECON,ioos:station:SCCF:56:1,2019-09-04T13:00:00Z,26.4645,-82.1044,3.96,11111222 
SCCF RECON,ioos:station:SCCF:56:1,2019-09-04T14:00:00Z,26.4645,-82.1044,4.17,11111222 
SCCF RECON,ioos:station:SCCF:56:1,2019-09-04T15:00:00Z,26.4645,-82.1044,4.5,11111222 
SCCF RECON,ioos:station:SCCF:56:1,2019-09-04T16:00:00Z,26.4645,-82.1044,4.8,11111222 
SCCF RECON,ioos:station:SCCF:56:1,2019-09-04T17:00:00Z,26.4645,-82.1044,5.31,11111222 
SCCF RECON,ioos:station:SCCF:56:1,2019-09-04T18:00:00Z,26.4645,-82.1044,5.62,11111222 
SCCF RECON,ioos:station:SCCF:56:1,2019-09-04T19:00:00Z,26.4645,-82.1044,5.51,11111222 
SCCF RECON,ioos:station:SCCF:56:1,2019-09-04T20:00:00Z,26.4645,-82.1044,4.85,11111222 
SCCF RECON,ioos:station:SCCF:56:1,2019-09-04T21:00:00Z,26.4645,-82.1044,8.45,11111222 
SCCF RECON,ioos:station:SCCF:56:1,2019-09-04T22:00:00Z,26.4645,-82.1044,5.58,11111222 
SCCF RECON,ioos:station:SCCF:56:1,2019-09-04T23:00:00Z,26.4645,-82.1044,6.23,11111222 
SCCF RECON,ioos:station:SCCF:56:1,2019-09-05T04:00:00Z,26.4645,-82.1044,4.7,11111222 
SCCF RECON,ioos:station:SCCF:56:1,2019-09-05T05:00:00Z,26.4645,-82.1044,4.79,11111222 
SCCF RECON,ioos:station:SCCF:56:1,2019-09-05T06:00:00Z,26.4645,-82.1044,4.17,11111222 
SCCF RECON,ioos:station:SCCF:56:1,2019-09-05T07:00:00Z,26.4645,-82.1044,3.24,11111222 
SCCF RECON,ioos:station:SCCF:56:1,2019-09-05T08:00:00Z,26.4645,-82.1044,2.87,11111222 
SCCF RECON,ioos:station:SCCF:56:1,2019-09-05T09:00:00Z,26.4645,-82.1044,2.89,11111222 
SCCF RECON,ioos:station:SCCF:56:1,2019-09-05T10:00:00Z,26.4645,-82.1044,2.85,11111222 
SCCF RECON,ioos:station:SCCF:56:1,2019-09-05T11:00:00Z,26.4645,-82.1044,2.75,11111222 
SCCF RECON,ioos:station:SCCF:56:1,2019-09-05T12:00:00Z,26.4645,-82.1044,2.53,11111222 
SCCF RECON,ioos:station:SCCF:56:1,2019-09-05T13:00:00Z,26.4645,-82.1044,2.86,11111222 
SCCF RECON,ioos:station:SCCF:56:1,2019-09-05T14:00:00Z,26.4645,-82.1044,2.63,11111222 
SCCF RECON,ioos:station:SCCF:56:1,2019-09-05T15:00:00Z,26.4645,-82.1044,3.15,11111222 
SCCF RECON,ioos:station:SCCF:56:1,2019-09-05T16:00:00Z,26.4645,-82.1044,3.47,11111222 
SCCF RECON,ioos:station:SCCF:56:1,2019-09-05T17:00:00Z,26.4645,-82.1044,3.9,11111222 
SCCF RECON,ioos:station:SCCF:56:1,2019-09-05T18:00:00Z,26.4645,-82.1044,4.85,11111222 
SCCF RECON,ioos:station:SCCF:56:1,2019-09-05T19:00:00Z,26.4645,-82.1044,5.73,11111222 
SCCF RECON,ioos:station:SCCF:56:1,2019-09-05T20:00:00Z,26.4645,-82.1044,3.86,11111222 
SCCF RECON,ioos:station:SCCF:56:1,2019-09-05T21:00:00Z,26.4645,-82.1044,4.34,11111222 
SCCF RECON,ioos:station:SCCF:56:1,2019-09-05T22:00:00Z,26.4645,-82.1044,4.02,11111222 
SCCF RECON,ioos:station:SCCF:56:1,2019-09-05T23:00:00Z,26.4645,-82.1044,4.35,11111222 
SCCF RECON,ioos:station:SCCF:56:1,2019-09-06T04:00:00Z,26.4645,-82.1044,3.72,11111222 
SCCF RECON,ioos:station:SCCF:56:1,2019-09-06T05:00:00Z,26.4645,-82.1044,3.66,11111222 
SCCF RECON,ioos:station:SCCF:56:1,2019-09-06T07:00:00Z,26.4645,-82.1044,3.27,11111222 
SCCF RECON,ioos:station:SCCF:56:1,2019-09-06T08:00:00Z,26.4645,-82.1044,2.99,11111222 
SCCF RECON,ioos:station:SCCF:56:1,2019-09-06T09:00:00Z,26.4645,-82.1044,2.9,11111222 
SCCF RECON,ioos:station:SCCF:56:1,2019-09-06T10:00:00Z,26.4645,-82.1044,2.68,11111222 
SCCF RECON,ioos:station:SCCF:56:1,2019-09-06T11:00:00Z,26.4645,-82.1044,2.71,11111222 
SCCF RECON,ioos:station:SCCF:56:1,2019-09-06T12:00:00Z,26.4645,-82.1044,2.21,11111222 
SCCF RECON,ioos:station:SCCF:56:1,2019-09-06T13:00:00Z,26.4645,-82.1044,2.33,11111222 
SCCF RECON,ioos:station:SCCF:56:1,2019-09-06T14:00:00Z,26.4645,-82.1044,2.29,11111222 
SCCF RECON,ioos:station:SCCF:56:1,2019-09-06T15:00:00Z,26.4645,-82.1044,2.6,11111222 
SCCF RECON,ioos:station:SCCF:56:1,2019-09-06T16:00:00Z,26.4645,-82.1044,2.64,11111222 
SCCF RECON,ioos:station:SCCF:56:1,2019-09-06T17:00:00Z,26.4645,-82.1044,3.32,11111222 
SCCF RECON,ioos:station:SCCF:56:1,2019-09-06T18:00:00Z,26.4645,-82.1044,3.46,11111222 
SCCF RECON,ioos:station:SCCF:56:1,2019-09-06T19:00:00Z,26.4645,-82.1044,4.36,11111222 
SCCF RECON,ioos:station:SCCF:56:1,2019-09-06T20:00:00Z,26.4645,-82.1044,4.66,11111222 
SCCF RECON,ioos:station:SCCF:56:1,2019-09-06T21:00:00Z,26.4645,-82.1044,4.5,11111222 
SCCF RECON,ioos:station:SCCF:56:1,2019-09-06T22:00:00Z,26.4645,-82.1044,3.72,11111222 
SCCF RECON,ioos:station:SCCF:56:1,2019-09-06T23:00:00Z,26.4645,-82.1044,4.04,11111222 
SCCF RECON,ioos:station:SCCF:56:1,2019-09-07T04:00:00Z,26.4645,-82.1044,2.91,11111222 
SCCF RECON,ioos:station:SCCF:56:1,2019-09-07T05:00:00Z,26.4645,-82.1044,3.16,11111222 
SCCF RECON,ioos:station:SCCF:56:1,2019-09-07T06:00:00Z,26.4645,-82.1044,3.0,11111222 
SCCF RECON,ioos:station:SCCF:56:1,2019-09-07T07:00:00Z,26.4645,-82.1044,3.13,11111222 
SCCF RECON,ioos:station:SCCF:56:1,2019-09-07T08:00:00Z,26.4645,-82.1044,3.01,11111222 
SCCF RECON,ioos:station:SCCF:56:1,2019-09-07T09:00:00Z,26.4645,-82.1044,2.84,11111222 
SCCF RECON,ioos:station:SCCF:56:1,2019-09-07T10:00:00Z,26.4645,-82.1044,2.74,11111222 
SCCF RECON,ioos:station:SCCF:56:1,2019-09-07T11:00:00Z,26.4645,-82.1044,2.83,11111222 
SCCF RECON,ioos:station:SCCF:56:1,2019-09-07T12:00:00Z,26.4645,-82.1044,2.46,11111222 
SCCF RECON,ioos:station:SCCF:56:1,2019-09-07T13:00:00Z,26.4645,-82.1044,2.49,11111222 
SCCF RECON,ioos:station:SCCF:56:1,2019-09-07T14:00:00Z,26.4645,-82.1044,2.54,11111222 
SCCF RECON,ioos:station:SCCF:56:1,2019-09-07T15:00:00Z,26.4645,-82.1044,2.19,11111222 
SCCF RECON,ioos:station:SCCF:56:1,2019-09-07T16:00:00Z,26.4645,-82.1044,2.29,11111222 
SCCF RECON,ioos:station:SCCF:56:1,2019-09-07T17:00:00Z,26.4645,-82.1044,2.79,11111222 
SCCF RECON,ioos:station:SCCF:56:1,2019-09-07T18:00:00Z,26.4645,-82.1044,3.07,11111222 
SCCF RECON,ioos:station:SCCF:56:1,2019-09-07T19:00:00Z,26.4645,-82.1044,3.54,11111222 
SCCF RECON,ioos:station:SCCF:56:1,2019-09-07T20:00:00Z,26.4645,-82.1044,3.87,11111222 
SCCF RECON,ioos:station:SCCF:56:1,2019-09-07T21:00:00Z,26.4645,-82.1044,5.55,11111222 
SCCF RECON,ioos:station:SCCF:56:1,2019-09-07T22:00:00Z,26.4645,-82.1044,4.33,11111222 
SCCF RECON,ioos:station:SCCF:56:1,2019-09-07T23:00:00Z,26.4645,-82.1044,3.54,11111222 
SCCF RECON,ioos:station:SCCF:56:1,2019-09-08T04:00:00Z,26.4645,-82.1044,2.68,11111222 
SCCF RECON,ioos:station:SCCF:56:1,2019-09-08T05:00:00Z,26.4645,-82.1044,2.92,11111222 
SCCF RECON,ioos:station:SCCF:56:1,2019-09-08T06:00:00Z,26.4645,-82.1044,2.57,11111222 
SCCF RECON,ioos:station:SCCF:56:1,2019-09-08T07:00:00Z,26.4645,-82.1044,2.55,11111222 
SCCF RECON,ioos:station:SCCF:56:1,2019-09-08T08:00:00Z,26.4645,-82.1044,2.5,11111222 
SCCF RECON,ioos:station:SCCF:56:1,2019-09-08T09:00:00Z,26.4645,-82.1044,2.78,11111222 
SCCF RECON,ioos:station:SCCF:56:1,2019-09-08T10:00:00Z,26.4645,-82.1044,2.91,11111222 
SCCF RECON,ioos:station:SCCF:56:1,2019-09-08T11:00:00Z,26.4645,-82.1044,3.03,11111222 
SCCF RECON,ioos:station:SCCF:56:1,2019-09-08T12:00:00Z,26.4645,-82.1044,2.86,11111222 
SCCF RECON,ioos:station:SCCF:56:1,2019-09-08T13:00:00Z,26.4645,-82.1044,2.75,11111222 
SCCF RECON,ioos:station:SCCF:56:1,2019-09-08T14:00:00Z,26.4645,-82.1044,2.53,11111222 
SCCF RECON,ioos:station:SCCF:56:1,2019-09-08T15:00:00Z,26.4645,-82.1044,2.58,11111222 
SCCF RECON,ioos:station:SCCF:56:1,2019-09-08T16:00:00Z,26.4645,-82.1044,2.47,11111222 
SCCF RECON,ioos:station:SCCF:56:1,2019-09-08T17:00:00Z,26.4645,-82.1044,2.66,11111222 
SCCF RECON,ioos:station:SCCF:56:1,2019-09-08T18:00:00Z,26.4645,-82.1044,2.4,11111222 
SCCF RECON,ioos:station:SCCF:56:1,2019-09-08T19:00:00Z,26.4645,-82.1044,3.1,11111222 
SCCF RECON,ioos:station:SCCF:56:1,2019-09-08T20:00:00Z,26.4645,-82.1044,3.6,11111222 
SCCF RECON,ioos:station:SCCF:56:1,2019-09-08T21:00:00Z,26.4645,-82.1044,4.29,11111222 
SCCF RECON,ioos:station:SCCF:56:1,2019-09-08T22:00:00Z,26.4645,-82.1044,5.57,11111222 
SCCF RECON,ioos:station:SCCF:56:1,2019-09-08T23:00:00Z,26.4645,-82.1044,5.9,11111222 
SCCF RECON,ioos:station:SCCF:56:1,2019-09-09T04:00:00Z,26.4645,-82.1044,2.88,11111222 
SCCF RECON,ioos:station:SCCF:56:1,2019-09-09T05:00:00Z,26.4645,-82.1044,2.75,11111222 
SCCF RECON,ioos:station:SCCF:56:1,2019-09-09T06:00:00Z,26.4645,-82.1044,2.74,11111222 
SCCF RECON,ioos:station:SCCF:56:1,2019-09-09T07:00:00Z,26.4645,-82.1044,2.74,11111222 
SCCF RECON,ioos:station:SCCF:56:1,2019-09-09T08:00:00Z,26.4645,-82.1044,2.61,11111222 
SCCF RECON,ioos:station:SCCF:56:1,2019-09-09T09:00:00Z,26.4645,-82.1044,2.94,11111222 
SCCF RECON,ioos:station:SCCF:56:1,2019-09-09T10:00:00Z,26.4645,-82.1044,2.82,11111222 
SCCF RECON,ioos:station:SCCF:56:1,2019-09-09T11:00:00Z,26.4645,-82.1044,3.34,11111222 
SCCF RECON,ioos:station:SCCF:56:1,2019-09-09T12:00:00Z,26.4645,-82.1044,3.19,11111222 
SCCF RECON,ioos:station:SCCF:56:1,2019-09-09T13:00:00Z,26.4645,-82.1044,3.11,11111222 
SCCF RECON,ioos:station:SCCF:56:1,2019-09-09T14:00:00Z,26.4645,-82.1044,2.7,11111222 
SCCF RECON,ioos:station:SCCF:56:1,2019-09-09T15:00:00Z,26.4645,-82.1044,2.85,11111222 
SCCF RECON,ioos:station:SCCF:56:1,2019-09-09T16:00:00Z,26.4645,-82.1044,3.0,11111222 
SCCF RECON,ioos:station:SCCF:56:1,2019-09-09T17:00:00Z,26.4645,-82.1044,3.01,11111222 
SCCF RECON,ioos:station:SCCF:56:1,2019-09-09T18:00:00Z,26.4645,-82.1044,2.92,11111222 
SCCF RECON,ioos:station:SCCF:56:1,2019-09-09T22:00:00Z,26.4645,-82.1044,4.61,11111222 
SCCF RECON,ioos:station:SCCF:56:1,2019-09-09T23:00:00Z,26.4645,-82.1044,6.29,11111222 
SCCF RECON,ioos:station:SCCF:56:1,2019-09-10T04:00:00Z,26.4645,-82.1044,3.37,11111222 
SCCF RECON,ioos:station:SCCF:56:1,2019-09-10T05:00:00Z,26.4645,-82.1044,3.51,11111222 
SCCF RECON,ioos:station:SCCF:56:1,2019-09-10T06:00:00Z,26.4645,-82.1044,3.21,11111222 
SCCF RECON,ioos:station:SCCF:56:1,2019-09-10T07:00:00Z,26.4645,-82.1044,3.06,11111222 
SCCF RECON,ioos:station:SCCF:56:1,2019-09-10T08:00:00Z,26.4645,-82.1044,3.21,11111222 
SCCF RECON,ioos:station:SCCF:56:1,2019-09-10T09:00:00Z,26.4645,-82.1044,3.32,11111222 
SCCF RECON,ioos:station:SCCF:56:1,2019-09-10T10:00:00Z,26.4645,-82.1044,2.93,11111222 
SCCF RECON,ioos:station:SCCF:56:1,2019-09-10T11:00:00Z,26.4645,-82.1044,3.19,11111222 
SCCF RECON,ioos:station:SCCF:56:1,2019-09-10T12:00:00Z,26.4645,-82.1044,3.29,11111222 
SCCF RECON,ioos:station:SCCF:56:1,2019-09-10T13:00:00Z,26.4645,-82.1044,3.33,11111222 
SCCF RECON,ioos:station:SCCF:56:1,2019-09-10T14:00:00Z,26.4645,-82.1044,3.11,11111222 
SCCF RECON,ioos:station:SCCF:56:1,2019-09-10T15:00:00Z,26.4645,-82.1044,3.34,11111222 
SCCF RECON,ioos:station:SCCF:56:1,2019-09-10T16:00:00Z,26.4645,-82.1044,3.16,11111222 
SCCF RECON,ioos:station:SCCF:56:1,2019-09-10T17:00:00Z,26.4645,-82.1044,3.09,11111222 
SCCF RECON,ioos:station:SCCF:56:1,2019-09-10T18:00:00Z,26.4645,-82.1044,2.91,11111222 
SCCF RECON,ioos:station:SCCF:56:1,2019-09-10T19:00:00Z,26.4645,-82.1044,3.75,11111222 
SCCF RECON,ioos:station:SCCF:56:1,2019-09-10T20:00:00Z,26.4645,-82.1044,3.6,11111222 
SCCF RECON,ioos:station:SCCF:56:1,2019-09-10T21:00:00Z,26.4645,-82.1044,4.27,11111222 
SCCF RECON,ioos:station:SCCF:56:1,2019-09-10T22:00:00Z,26.4645,-82.1044,5.01,11111222 
SCCF RECON,ioos:station:SCCF:56:1,2019-09-10T23:00:00Z,26.4645,-82.1044,5.93,11111222 
SCCF RECON,ioos:station:SCCF:56:1,2019-09-11T04:00:00Z,26.4645,-82.1044,4.19,11111222 
SCCF RECON,ioos:station:SCCF:56:1,2019-09-11T05:00:00Z,26.4645,-82.1044,3.93,11111222 
SCCF RECON,ioos:station:SCCF:56:1,2019-09-11T06:00:00Z,26.4645,-82.1044,3.82,11111222 
SCCF RECON,ioos:station:SCCF:56:1,2019-09-11T07:00:00Z,26.4645,-82.1044,3.02,11111222 
SCCF RECON,ioos:station:SCCF:56:1,2019-09-11T08:00:00Z,26.4645,-82.1044,2.92,11111222 
SCCF RECON,ioos:station:SCCF:56:1,2019-09-11T09:00:00Z,26.4645,-82.1044,3.11,11111222 
SCCF RECON,ioos:station:SCCF:56:1,2019-09-11T10:00:00Z,26.4645,-82.1044,3.04,11111222 
SCCF RECON,ioos:station:SCCF:56:1,2019-09-11T11:00:00Z,26.4645,-82.1044,3.36,11111222 
SCCF RECON,ioos:station:SCCF:56:1,2019-09-11T12:00:00Z,26.4645,-82.1044,3.75,11111222 
SCCF RECON,ioos:station:SCCF:56:1,2019-09-11T13:00:00Z,26.4645,-82.1044,3.78,11111222 
SCCF RECON,ioos:station:SCCF:56:1,2019-09-11T14:00:00Z,26.4645,-82.1044,3.25,11111222 
SCCF RECON,ioos:station:SCCF:56:1,2019-09-11T15:00:00Z,26.4645,-82.1044,3.51,11111222 
SCCF RECON,ioos:station:SCCF:56:1,2019-09-11T16:00:00Z,26.4645,-82.1044,3.42,11111222 
SCCF RECON,ioos:station:SCCF:56:1,2019-09-11T17:00:00Z,26.4645,-82.1044,3.66,11111222 
SCCF RECON,ioos:station:SCCF:56:1,2019-09-11T18:00:00Z,26.4645,-82.1044,3.44,11111222 
SCCF RECON,ioos:station:SCCF:56:1,2019-09-11T19:00:00Z,26.4645,-82.1044,4.21,11111222 
SCCF RECON,ioos:station:SCCF:56:1,2019-09-11T20:00:00Z,26.4645,-82.1044,3.76,11111222 
SCCF RECON,ioos:station:SCCF:56:1,2019-09-11T21:00:00Z,26.4645,-82.1044,4.24,11111222 
SCCF RECON,ioos:station:SCCF:56:1,2019-09-11T22:00:00Z,26.4645,-82.1044,4.36,11111222 
SCCF RECON,ioos:station:SCCF:56:1,2019-09-11T23:00:00Z,26.4645,-82.1044,5.15,11111222 
SCCF RECON,ioos:station:SCCF:56:1,2019-09-12T04:00:00Z,26.4645,-82.1044,4.88,11111222 
SCCF RECON,ioos:station:SCCF:56:1,2019-09-12T05:00:00Z,26.4645,-82.1044,4.73,11111222 
SCCF RECON,ioos:station:SCCF:56:1,2019-09-12T06:00:00Z,26.4645,-82.1044,4.22,11111222 
SCCF RECON,ioos:station:SCCF:56:1,2019-09-12T07:00:00Z,26.4645,-82.1044,3.91,11111222 
SCCF RECON,ioos:station:SCCF:56:1,2019-09-12T08:00:00Z,26.4645,-82.1044,3.64,11111222 
SCCF RECON,ioos:station:SCCF:56:1,2019-09-12T09:00:00Z,26.4645,-82.1044,3.65,11111222 
SCCF RECON,ioos:station:SCCF:56:1,2019-09-12T10:00:00Z,26.4645,-82.1044,1.62,11113222 
SCCF RECON,ioos:station:SCCF:56:1,2019-09-12T11:00:00Z,26.4645,-82.1044,3.57,11111222 
SCCF RECON,ioos:station:SCCF:56:1,2019-09-12T12:00:00Z,26.4645,-82.1044,3.63,11111222 
SCCF RECON,ioos:station:SCCF:56:1,2019-09-12T13:00:00Z,26.4645,-82.1044,3.78,11111222 
SCCF RECON,ioos:station:SCCF:56:1,2019-09-12T14:00:00Z,26.4645,-82.1044,3.83,11111222 
SCCF RECON,ioos:station:SCCF:56:1,2019-09-12T15:00:00Z,26.4645,-82.1044,5.64,11111222 
SCCF RECON,ioos:station:SCCF:56:1,2019-09-12T16:00:00Z,26.4645,-82.1044,4.18,11111222 
SCCF RECON,ioos:station:SCCF:56:1,2019-09-13T20:00:00Z,26.4645,-82.1044,4.1,11111222 
SCCF RECON,ioos:station:SCCF:56:1,2019-09-13T21:00:00Z,26.4645,-82.1044,4.07,11111222 
SCCF RECON,ioos:station:SCCF:56:1,2019-09-13T22:00:00Z,26.4645,-82.1044,3.87,11111222 
SCCF RECON,ioos:station:SCCF:56:1,2019-09-13T23:00:00Z,26.4645,-82.1044,3.78,11111222 
SCCF RECON,ioos:station:SCCF:56:1,2019-09-14T04:00:00Z,26.4645,-82.1044,4.21,11111222 
SCCF RECON,ioos:station:SCCF:56:1,2019-09-14T05:00:00Z,26.4645,-82.1044,4.47,11111222 
SCCF RECON,ioos:station:SCCF:56:1,2019-09-14T06:00:00Z,26.4645,-82.1044,4.06,11111222 
SCCF RECON,ioos:station:SCCF:56:1,2019-09-14T07:00:00Z,26.4645,-82.1044,4.11,11111222 
SCCF RECON,ioos:station:SCCF:56:1,2019-09-14T08:00:00Z,26.4645,-82.1044,3.78,11111222 
SCCF RECON,ioos:station:SCCF:56:1,2019-09-14T09:00:00Z,26.4645,-82.1044,3.46,11111222 
SCCF RECON,ioos:station:SCCF:56:1,2019-09-14T10:00:00Z,26.4645,-82.1044,3.48,11111222 
SCCF RECON,ioos:station:SCCF:56:1,2019-09-14T11:00:00Z,26.4645,-82.1044,3.05,11111222 
SCCF RECON,ioos:station:SCCF:56:1,2019-09-14T12:00:00Z,26.4645,-82.1044,3.38,11111222 
SCCF RECON,ioos:station:SCCF:56:1,2019-09-14T13:00:00Z,26.4645,-82.1044,3.52,11111222 
SCCF RECON,ioos:station:SCCF:56:1,2019-09-14T14:00:00Z,26.4645,-82.1044,3.28,11111222 
SCCF RECON,ioos:station:SCCF:56:1,2019-09-14T15:00:00Z,26.4645,-82.1044,3.82,11111222 
SCCF RECON,ioos:station:SCCF:56:1,2019-09-14T16:00:00Z,26.4645,-82.1044,3.73,11111222 
SCCF RECON,ioos:station:SCCF:56:1,2019-09-14T17:00:00Z,26.4645,-82.1044,3.95,11111222 
SCCF RECON,ioos:station:SCCF:56:1,2019-09-14T18:00:00Z,26.4645,-82.1044,3.91,11111222 
SCCF RECON,ioos:station:SCCF:56:1,2019-09-14T19:00:00Z,26.4645,-82.1044,4.84,11111222 
SCCF RECON,ioos:station:SCCF:56:1,2019-09-14T20:00:00Z,26.4645,-82.1044,3.7,11111222 
SCCF RECON,ioos:station:SCCF:56:1,2019-09-14T21:00:00Z,26.4645,-82.1044,5.04,11111222 
SCCF RECON,ioos:station:SCCF:56:1,2019-09-14T22:00:00Z,26.4645,-82.1044,3.59,11111222 
SCCF RECON,ioos:station:SCCF:56:1,2019-09-14T23:00:00Z,26.4645,-82.1044,3.63,11111222 
SCCF RECON,ioos:station:SCCF:56:1,2019-09-15T04:00:00Z,26.4645,-82.1044,3.27,11111222 
SCCF RECON,ioos:station:SCCF:56:1,2019-09-15T05:00:00Z,26.4645,-82.1044,3.79,11111222 
SCCF RECON,ioos:station:SCCF:56:1,2019-09-15T06:00:00Z,26.4645,-82.1044,3.68,11111222 
SCCF RECON,ioos:station:SCCF:56:1,2019-09-15T07:00:00Z,26.4645,-82.1044,3.79,11111222 
SCCF RECON,ioos:station:SCCF:56:1,2019-09-15T08:00:00Z,26.4645,-82.1044,4.13,11111222 
SCCF RECON,ioos:station:SCCF:56:1,2019-09-15T09:00:00Z,26.4645,-82.1044,3.36,11111222 
SCCF RECON,ioos:station:SCCF:56:1,2019-09-15T10:00:00Z,26.4645,-82.1044,3.18,11111222 
SCCF RECON,ioos:station:SCCF:56:1,2019-09-15T11:00:00Z,26.4645,-82.1044,2.92,11111222 
SCCF RECON,ioos:station:SCCF:56:1,2019-09-15T12:00:00Z,26.4645,-82.1044,3.01,11111222 
SCCF RECON,ioos:station:SCCF:56:1,2019-09-15T13:00:00Z,26.4645,-82.1044,3.1,11111222 
SCCF RECON,ioos:station:SCCF:56:1,2019-09-15T14:00:00Z,26.4645,-82.1044,2.99,11111222 
SCCF RECON,ioos:station:SCCF:56:1,2019-09-15T15:00:00Z,26.4645,-82.1044,3.36,11111222 
SCCF RECON,ioos:station:SCCF:56:1,2019-09-15T16:00:00Z,26.4645,-82.1044,3.17,11111222 
SCCF RECON,ioos:station:SCCF:56:1,2019-09-15T17:00:00Z,26.4645,-82.1044,3.39,11111222 
SCCF RECON,ioos:station:SCCF:56:1,2019-09-15T18:00:00Z,26.4645,-82.1044,3.67,11111222 
SCCF RECON,ioos:station:SCCF:56:1,2019-09-15T19:00:00Z,26.4645,-82.1044,3.82,11111222 
SCCF RECON,ioos:station:SCCF:56:1,2019-09-15T20:00:00Z,26.4645,-82.1044,3.61,11111222 
SCCF RECON,ioos:station:SCCF:56:1,2019-09-15T21:00:00Z,26.4645,-82.1044,3.95,11111222 
SCCF RECON,ioos:station:SCCF:56:1,2019-09-15T22:00:00Z,26.4645,-82.1044,3.92,11111222 
SCCF RECON,ioos:station:SCCF:56:1,2019-09-15T23:00:00Z,26.4645,-82.1044,3.56,11111222 
SCCF RECON,ioos:station:SCCF:56:1,2019-09-16T04:00:00Z,26.4645,-82.1044,3.66,11111222 
SCCF RECON,ioos:station:SCCF:56:1,2019-09-16T05:00:00Z,26.4645,-82.1044,3.56,11111222 
SCCF RECON,ioos:station:SCCF:56:1,2019-09-16T06:00:00Z,26.4645,-82.1044,3.39,11111222 